Hovedside
METAR-TAF:

METAR-TAF

Lufthavner :

Nouakchott, Mauritania

Nouakchott internasjonale lufthavn

breddegrad: 18-18-36N, lengdegrad: 015-58-11W, høyde over havet: 3 m

Gjeldene værobservasjon

Denne rapporten ble laget for 15 minutter siden, klokken 21:30 UTC
Vind 8 kt fra Nord-nordøst
Temperatur 20°C
Luftfuktighet 26%
Trykk 1017 hPa
Sikt: 7000 m

METAR: GQNO 182130Z 02008KT 7000 NSC 20/00 Q1017 NOSIG

Tid: 21:45 (21:45 UTC)

Varsel

Denne rapporten ble laget for 4 timer og 45 minutter siden, klokken 17:00 UTC
Varsel gyldig fra 18. klokken 18 UTC til 19. klokken 24 UTC
Vind 12 kt fra Nordøst
Sikt: 6000 m

TAF: GQNO 181700Z 1818/1924 04012KT 6000 NSC

Værobservasjoner og værvarsel for over 4000 flyplasser (METAR- og TAF-rapporter).

Tilgjengelige stasjoner er representert av de røde og gule prikkene på kartet.

Hold musepekeren over prikken for å se navnet på stasjonen.

Klikk så for å se værobservasjoner og -varsler.

For å forandre kartet kan du klikke på den grønne knappen med svart kryss for å zoome inn, på den grønne knappen med strek for å zoome ut, eller på de grønne pilene for å se tilstøtende kart.


METAR-TAF: